Location: Cheching
(60.0667°N, 164.2167°W)
Time: 21:02:16
(UTC+00:00)

NOAA 15 - Pass Details

Date: 25 January 2021
Orbit: 798 x 812 km, 98.7° (Epoch: 07 March)

Event Time Altitude Azimuth Distance (km) Brightness Sun altitude
Rises 17:45:06 0° 20° (NNE) 3,345 7.9 -11.9°
Reaches altitude 10° 17:47:48 10° 33° (NNE) 2,411 7.3 -11.5°
Maximum altitude 17:52:20 28° 91° (E) 1,504 6.9 -11.0°
Drops below altitude 10° 17:56:51 10° 149° (SSE) 2,401 7.9 -10.5°
Sets 17:59:31 0° 161° (SSE) 3,328 8.4 -10.1°
